Showing default

JINJUSAT-1B, 63210

Orbit data source: Space-Track

JINJUSAT-1B, 63210 is a South Korean payload satellite in SSO that was launched on Sat, 15 Mar 2025 UTC via an FALCON 9 launch vehicle from the Air Force Western Test Range (AFWTR). Payload-class satellites include a variety of spacecraft equipped with specific instruments for various scientific and technological missions. These include communications satellites like Starlink; space stations such as the ISS; scientific satellites like the Hubble; Earth observation satellites from companies like Planet Labs, Umbra, and HawkEye 360; GPS; miniature CubeSats for education and research; and military/defense satellites.

Loading next visibility...
Identifier
63210, 2025-052A
Orbit
SSO
Country
Flag of KRKR / SKOR
Related business
Manufacturer
KTL
Mission
Operational Civil Imaging
Bus & Motor
CUBESAT 2U, Unknown motor
Mass
2 kg wet, 2 kg dry
Launch date (UTC)
2025-03-15 (1 year ago)
Launch vehicle
FALCON 9
Launch site
Air Force Western Test Range (AFWTR)
Object type
Payload
Rocket body
Debris
Shape & HBR
Box, 0.1 m
Radar Cross Section
0.025 m², Medium (>0.1 m² and < 1m²)

Expand to show TLE details & history
Last TLE update: 6 hours ago

TLE from 6 hours ago
0 JINJUSAT-1B
1 63210U 25052A   26175.19277766  .00015186  00000-0  46798-3 0  9990
2 63210  97.4001  71.9576 0005300  76.2271 283.9561 15.33693102 71176
Epoch: 2026-06-24T04:37Z
TLE epoch observation values (Epoch: 2026-06-24T04:37:35.989Z)
Latitude
-0.00006°
Longitude
90.20414°
Altitude
467.041 km
Speed
7.633 km/s
True Right ascension
04h 47m 49s
True Declination
0° 00' 00"
Sunlit
Object was in daylight at epoch
Visualization orbit readout
Latitude
Unknown
Longitude
Unknown
Altitude
Unknown
Speed
Unknown
Apparent Right ascension
Unknown
Apparent Declination
Unknown
Sunlit
N/A
Visualization observer readout
Local Sidereal Time
21:57:04
Azimuth
Unknown
Elevation
Unknown
Doppler factor
Unknown
Orbital elements
Apogee altitude
465.378 km
Perigee altitude
458.127 km
Semi-major axis
6,839.889 km
Eccentricity
0.00053
Inclination
97.4001°
RAAN
71.9576°
Arg. of periapsis
76.2271°
True anomaly
283.89715°
Mean anomaly
283.9561°
Eccentric anomaly
283.92663°
Mean motion
3.8368 °/min
Orbital period
93.83 mins
BSTAR
0.00046798
Loading maneuver chart data...
Computing Atmospheric mass density...
Loading historical data...
Loading historical data...
Loading historical data...
Loading historical data...
Loading historical data...
Loading historical data...
Loading historical data...

Documentation

Showing up to 5 results
|